Location: Peebles
(55.6412°N, 3.1714°W)
Time: 07:36:47
(UTC+00:00)

COSMOS 2251 DEB - Pass Details

Date: 30 November 2022
Orbit: 738 x 761 km, 74.0° (Epoch: 29 January)

Event Time Altitude Azimuth Distance (km) Brightness Sun altitude
Exits shadow 03:50:54 16° 24° (NNE) 1,860 ? -35.9°
Drops below altitude 10° 03:51:57 10° 26° (NNE) 2,259 ? -35.8°
Sets 03:54:19 0° 28° (NNE) 3,186 ? -35.5°
